Wausau, WI

2:52 PM CDT on July 21, 2017 (GMT -0500)
Wausau Downtown

Weather History for KAUW - October, 2011

Change the Weather History Date:

Thursday, October 20, 2011

  Actual Average Record
Temperature  
Mean Temperature 40 °F 44 °F  
Max Temperature 46 °F 54 °F 81 °F (1953)
Min Temperature 33 °F 35 °F 17 °F (1952)
Degree Days  
Heating Degree Days 25 20  
Month to date heating degree days 208 340  
Since 1 July heating degree days 483 633  
Cooling Degree Days 0 0  
Month to date cooling degree days 8 0  
Year to date cooling degree days 558 405  
Moisture  
Dew Point 31 °F    
Average Humidity 70    
Maximum Humidity 82    
Minimum Humidity 58    
Precipitation  
Precipitation 0.00 in 0.10 in 1.25 in (1934)
Month to date precipitation 1.40 2.08  
Year to date precipitation 32.25 28.19  
Snow  
Snow 0.00 in 0.10 in 3.00 in (1905)
Month to date snowfall 0.0 0.7  
Since 1 July snowfall 0.0 0.7  
Snow Depth 0.00 in    
Sea Level Pressure  
Sea Level Pressure 29.81 in    
Wind  
Wind Speed 12 mph (NNW)    
Max Wind Speed 23 mph    
Max Gust Speed 32 mph    
Visibility 10 miles    
Events      
T = Trace of Precipitation, MM = Missing Value Source: NWS Daily Summary

Daily Weather History Graph

Daily Weather History Graph

Search for Another Location

Airport or City:

Trip Planner

Search our weather history database for the weather conditions in past years. The results will help you decide how hot, cold, wet, or windy it might be!

Date:

Astronomy

Oct. 20, 2011 Rise Set
Actual Time 7:20 AM CDT 6:05 PM CDT
Civil Twilight 6:50 AM CDT 6:35 PM CDT
Nautical Twilight 6:16 AM CDT 7:09 PM CDT
Astronomical Twilight 5:42 AM CDT 7:43 PM CDT
Moon No Moon Rise 2:31 PM CDT (10/20)
Length of Visible Light 11h 44m
Length of Day
10h 45m
Last Quarter, 44% of the Moon is Illuminated
Oct 20
Last Quarter
Oct 26
New
Nov 2
First Quarter
Nov 10
Full
Nov 18
Last Quarter

Hourly Weather History & Observations

Time (CDT) Temp. Windchill Dew Point Humidity Pressure Visibility Wind Dir Wind Speed Gust Speed Precip Events Conditions
12:10 AM 39.2 °F 31.2 °F 30.2 °F 70% 29.83 in 10.0 mi North 13.8 mph 19.6 mph N/A   Scattered Clouds
12:24 AM 39.2 °F 32.0 °F 30.2 °F 70% 29.82 in 10.0 mi North 11.5 mph 20.7 mph N/A   Mostly Cloudy
12:54 AM 39.9 °F 33.4 °F 30.9 °F 70% 29.85 in 10.0 mi North 10.4 mph 20.7 mph N/A   Overcast
1:54 AM 41.0 °F 34.7 °F 32.0 °F 70% 29.83 in 10.0 mi North 10.4 mph 23.0 mph N/A   Overcast
2:54 AM 39.9 °F 32.5 °F 30.9 °F 70% 29.81 in 10.0 mi North 12.7 mph 19.6 mph N/A   Overcast
3:54 AM 39.9 °F 33.9 °F 32.0 °F 73% 29.79 in 10.0 mi NNW 9.2 mph 24.2 mph N/A   Overcast
4:54 AM 39.0 °F 32.3 °F 32.0 °F 76% 29.79 in 10.0 mi North 10.4 mph 18.4 mph N/A   Overcast
5:54 AM 39.0 °F 30.6 °F 30.9 °F 73% 29.78 in 10.0 mi North 15.0 mph 21.9 mph N/A   Overcast
6:54 AM 39.0 °F 30.3 °F 30.0 °F 70% 29.78 in 10.0 mi North 16.1 mph 21.9 mph N/A   Overcast
7:54 AM 39.0 °F 32.3 °F 30.0 °F 70% 29.77 in 10.0 mi North 10.4 mph 24.2 mph N/A   Overcast
8:54 AM 39.9 °F 32.5 °F 30.0 °F 68% 29.76 in 10.0 mi North 12.7 mph 28.8 mph N/A   Overcast
9:54 AM 41.0 °F 33.5 °F 30.9 °F 67% 29.77 in 10.0 mi North 13.8 mph 29.9 mph N/A   Overcast
10:54 AM 42.1 °F 33.9 °F 30.9 °F 65% 29.77 in 10.0 mi North 17.3 mph 25.3 mph N/A   Overcast
11:39 AM 42.8 °F 35.4 °F 30.2 °F 61% 29.72 in 10.0 mi North 15.0 mph 25.3 mph N/A   Overcast
11:54 AM 44.1 °F 36.8 °F 30.9 °F 60% 29.76 in 10.0 mi NNW 16.1 mph 25.3 mph N/A   Overcast
12:54 PM 45.0 °F 38.2 °F 32.0 °F 60% 29.76 in 10.0 mi NW 15.0 mph 21.9 mph N/A   Overcast
1:54 PM 43.0 °F 37.2 °F 32.0 °F 65% 29.76 in 10.0 mi NNW 10.4 mph 25.3 mph N/A   Overcast
2:34 PM 42.8 °F 34.5 °F 30.2 °F 61% 29.73 in 10.0 mi NNW 18.4 mph 31.1 mph N/A   Overcast
2:54 PM 43.0 °F 35.7 °F 30.9 °F 62% 29.77 in 10.0 mi NNW 15.0 mph 28.8 mph N/A   Overcast
3:12 PM 42.8 °F 34.8 °F 30.2 °F 61% 29.73 in 10.0 mi NNW 17.3 mph 26.5 mph N/A   Overcast
3:54 PM 43.0 °F 35.1 °F 30.9 °F 62% 29.79 in 10.0 mi NNW 17.3 mph 27.6 mph N/A   Overcast
4:54 PM 42.1 °F 34.9 °F 30.9 °F 65% 29.81 in 10.0 mi NNW 13.8 mph 26.5 mph N/A   Overcast
5:54 PM 42.1 °F 35.2 °F 32.0 °F 67% 29.85 in 10.0 mi North 12.7 mph 25.3 mph N/A   Overcast
6:54 PM 41.0 °F 33.5 °F 30.9 °F 67% 29.87 in 10.0 mi NNW 13.8 mph 23.0 mph N/A   Overcast
8:54 PM 39.0 °F 32.3 °F 30.0 °F 70% 29.89 in 10.0 mi NNW 10.4 mph 18.4 mph N/A   Mostly Cloudy
9:13 PM 39.2 °F 32.5 °F 30.2 °F 70% 29.85 in 10.0 mi NNW 10.4 mph - N/A   Partly Cloudy
9:54 PM 37.9 °F 34.4 °F 30.0 °F 73% 29.90 in 10.0 mi NW 4.6 mph - N/A   Clear
10:54 PM 36.0 °F 31.1 °F 30.0 °F 79% 29.91 in 10.0 mi NW 5.8 mph - N/A   Clear
11:54 PM 35.1 °F 30.1 °F 28.9 °F 78% 29.91 in 10.0 mi NW 5.8 mph - N/A   Clear